Regional Weather Roundup
Issued by NWS

Home | Current Version | Previous Version | Graphics & Text | Print | Product List | Glossary On
Versions: 1 2 3 4 5 6 7 8 9 10 11 12 13 14 15 16 17 18 19 20 21 22 23 24 25 26 27 28 29 30 31 32 33 34 35 36 37 38 39 40 41 42 43 44 45 46 47 48 49 50
000
ASUS43 KMPX 050601
RWRMN
WEATHER ROUNDUP FOR MINNESOTA
NATIONAL WEATHER SERVICE TWIN CITIES/CHANHASSEN MN
100 AM CDT WED AUG 05 2015


NOTE: "FAIR" INDICATES FEW OR NO CLOUDS BELOW 12,000 FEET WITH NO
SIGNIFICANT WEATHER AND/OR OBSTRUCTIONS TO VISIBILITY. N/A MEANS
CURRENT SKY AND/OR WEATHER CONDITIONS ARE NOT AVAILABLE.

MNZ060>063-068>070-050700-
   Twin Cities Metro

CITY           SKY/WX    TMP DP  RH WIND       PRES   REMARKS
TWIN CITIES    CLEAR     70  53  54 W3        30.03R
6HR MIN TEMP:  69; 6HR MAX TEMP:  79;

ST PAUL        CLEAR     65  59  81 CALM      30.03R
CRYSTAL        CLEAR     62  56  80 CALM      30.02R
BLAINE         CLEAR     63  57  82 CALM      30.04R
LAKEVILLE      CLEAR     55  54  94 CALM      30.03S
EDEN PRAIRIE   CLEAR     65  56  72 N3        30.03R
6HR MIN TEMP:  64; 6HR MAX TEMP:  79;

SOUTH ST PAUL  CLEAR     66  54  66 CALM      30.03R
LAKE ELMO      FAIR      59  57  94 CALM      30.04S
$$
MNZ001>005-007-008-013>017-022>024-027-028-050700-
   Northwest Minnesota

CITY           SKY/WX    TMP DP  RH WIND       PRES   REMARKS
BEMIDJI        CLEAR     55  51  88 E5        30.09R
HALLOCK        PTCLDY    57  54  88 NE7       30.05F
ROSEAU         CLEAR     54  48  82 CALM      30.08S
WARROAD        CLEAR     54  50  87 CALM      30.10R
THIEF RVR FALL PTCLDY    57  50  77 E6        30.07S
CROOKSTON      CLEAR     61  54  77 E6        30.05S
FOSSTON        CLEAR     52  46  82 CALM      30.08R
DETROIT LAKES  PTCLDY    61  55  82 CALM      30.07R
MOORHEAD       PTCLDY    61  54  77 SE3       30.04R
PARK RAPIDS    CLEAR     60  52  74 NE6       30.07R
MAHNOMEN       FAIR      55  53  93 E3        30.06R
$$
MNZ006-009>011-018-025>026-050700-
   North Central Minnesota

CITY           SKY/WX    TMP DP  RH WIND       PRES   REMARKS
BAUDETTE       CLEAR     52  49  89 CALM      30.09R
FLAG ISLAND    CLEAR     64  52  63 S8        30.08R
INTL FALLS     CLEAR     44  43  96 CALM      30.10R
6HR MIN TEMP:  43; 6HR MAX TEMP:  65;

WASKISH        CLEAR     50  48  93 CALM      30.10R
BIG FORK       CLEAR     45  43  93 CALM      30.10S
LONGVILLE      CLEAR     52  52 100 CALM      30.08S
GRAND RAPIDS   CLEAR     50  46  87 CALM      30.10R
CRANE LAKE     CLEAR     46  46 100 CALM      30.12R
ORR            PTCLDY    46  45  93 CALM      30.09R
COOK           PTCLDY    45  45 100 CALM      30.11R
WALKER         FAIR      61  53  76 E5        30.08R
$$
MNZ012-019>021-037-050700-
   Northeast Minnesota

CITY           SKY/WX    TMP DP  RH WIND       PRES   REMARKS
DULUTH         PTCLDY    55  48  77 E5        30.09R
6HR MIN TEMP:  55; 6HR MAX TEMP:  66;

ELY            CLOUDY    52  50  93 CALM      30.10R
HIBBING        CLEAR     45  43  93 CALM      30.10R FOG
EVELETH        CLEAR     43  43 100 CALM      30.11R
DULUTH HARBOR  CLEAR     54  50  87 CALM      30.09R
TWO HARBORS    PTCLDY    52  46  82 N3        30.07S
SILVER BAY     CLEAR     46  45  93 CALM      30.08R
GRAND MARAIS     N/A     49  46  90 CALM      30.07R
G MARAIS ARPRT CLEAR     46  43  87 N3        30.10R
$$
MNZ029>031-032-039>041-046>048-054>057-064-050700-
   West Central Minnesota

CITY           SKY/WX    TMP DP  RH WIND       PRES   REMARKS
FERGUS FALLS   PTCLDY    63  55  77 E5        30.04S
WHEATON        CLEAR     55  52  88 SE3       30.06R
MORRIS         CLEAR     57  54  88 CALM      30.04R
ALEXANDRIA     CLEAR     62  52  69 NE5       30.07R
ELBOW LAKE     FAIR      65  57  75 E6        30.04S
WADENA         CLEAR     54  52  94 E3        30.06R
GLENWOOD       CLEAR     63  55  77 N3        30.06R
APPLETON       PTCLDY    59  55  88 CALM      30.03S
BENSON         CLEAR     52  50  93 CALM      30.04S
ORTONVILLE     PTCLDY    63  55  77 S3        30.04R
MADISON        PTCLDY    59  54  82 CALM      30.04S
WILLMAR        FAIR      57  55  94 CALM      30.05S
$$
MNZ033>034-036-042>043-049>051-058-059-050700-
   Central Minnesota

CITY           SKY/WX    TMP DP  RH WIND       PRES   REMARKS
ST CLOUD       CLEAR     57  56  96 CALM      30.04R
6HR MIN TEMP:  57; 6HR MAX TEMP:  79;

SAUK CENTRE    FAIR      56  55  95 CALM      30.06R
PAYNESVILLE    CLEAR     53  53  97 CALM      30.05S
AITKIN         CLEAR     54  48  82 CALM      30.07R
PINE RIVER     CLEAR     54  52  94 CALM      30.10S
BRAINERD       CLEAR     56  53  90 NE6       30.06S
STAPLES        CLEAR     57  54  88 CALM      30.06R
LONG PRAIRIE   FAIR      57  54  88 CALM      30.06S
LITCHFIELD     CLEAR     61  59  94 CALM      30.05S
BUFFALO        CLEAR     60  56  85 CALM      30.05R
MAPLE LAKE     CLEAR     59  57  94 CALM      30.05R
$$
MNZ037-044-045-052-053-050700-
   East Central Minnesota

CITY           SKY/WX    TMP DP  RH WIND       PRES   REMARKS
PRINCETON      CLEAR     57  55  94 CALM      30.05R
MORA           CLEAR     55  52  88 CALM      30.08R
CAMBRIDGE      CLEAR     61  52  72 CALM      30.03S
RUSH CITY      PTCLDY    59  54  83 CALM      30.06R
MOOSE LAKE     CLEAR     54  50  87 NE3       30.07R
HINCKLEY       FAIR      55  54  94 NE5       30.07R
CLOQUET        CLEAR     55  46  71 CALM      30.09R
MCGREGOR       CLEAR     54  50  87 CALM      30.09R
$$
MNZ071>073-080-081-089-090-097-098-050700-
   Southwest Minnesota

CITY           SKY/WX    TMP DP  RH WIND       PRES   REMARKS
MONTEVIDEO     PTCLDY    57  52  82 CALM      30.06R
GRANITE FALLS  PTCLDY    57  55  90 SE5       30.05S
CANBY          MOCLDY    57  54  89 CALM      30.05S
MARSHALL       MOCLDY    57  52  82 CALM      30.05S
REDWOOD FALLS  MOCLDY    62  55  77 S3        30.04R
OLIVIA         PTCLDY    57  50  77 CALM      30.03S
PIPESTONE      CLOUDY    61  55  82 CALM      30.05S
WINDOM         MOCLDY    57  54  88 CALM      30.05S
WORTHINGTON    MOCLDY    61  54  77 CALM      30.06R
JACKSON        MOCLDY    61  55  82 E3        30.07R
SLAYTON        MOCLDY    59  56  90 CALM      30.06S
$$
MNZ065>067-074>077-082>085-091>093-050700-
   South Central Minnesota

CITY           SKY/WX    TMP DP  RH WIND       PRES   REMARKS
MANKATO        PTCLDY    63  52  67 CALM      30.05R
NEW ULM        MOCLDY    61  54  77 CALM      30.04S
ST JAMES       MOCLDY    61  55  82 CALM      30.06R
FAIRMONT       MOCLDY    57  52  82 CALM      30.05R
GLENCOE        PTCLDY    59  56  91 CALM      30.03S
FARIBAULT      PTCLDY    57  54  88 CALM      30.05R
OWATONNA       PTCLDY    55  54  94 CALM      30.05S
WASECA         MOCLDY    55  54  94 CALM      30.06S
ALBERT LEA     MOCLDY    57  55  94 CALM      30.06S
$$
MNZ078>079-086>088-094>096-050700-
   Southeast Minnesota

CITY           SKY/WX    TMP DP  RH WIND       PRES   REMARKS
ROCHESTER      PTCLDY    58  53  84 SW7       30.07R
6HR MIN TEMP:  57; 6HR MAX TEMP:  73;

RED WING       CLEAR     59  55  88 CALM      30.02S
STANTON        PTCLDY    58  54  84 S3        30.02F
DODGE CENTER   PTCLDY    57  52  82 CALM      30.06S
WINONA         CLEAR     61  59  94 CALM      30.04S
AUSTIN         PTCLDY    57  55  94 CALM      30.06S
PRESTON        PTCLDY    61  53  76 CALM      30.07R
$$
ABBREVIATIONS USED IN REMARKS
   TC - TEMPERATURES IN CELSIUS
  WCI - WIND CHILL INDEX
   HX - HEAT INDEX
  VSB - VISIBILITY
$$



USA.gov is the U.S. government's official web portal to all federal, state and local government web resources and services.